Location: Cerda�ola
(41.4919°N, 2.1403°E)
Time: 00:18:47
(UTC+00:00)

Cosmos 1269 Rocket - Pass Details

Date: 29 March 2020
Orbit: 772 x 779 km, 74.1° (Epoch: 27 May)

Event Time Altitude Azimuth Distance (km) Brightness Sun altitude
Rises 19:19:27 0° 198° (SSW) 3,235 7.3 -12.8°
Reaches altitude 10° 19:21:48 10° 199° (SSW) 2,313 6.5 -13.3°
Maximum altitude 19:27:04 88° 287° (WNW) 781 4.0 -14.2°
Drops below altitude 10° 19:32:23 10° 19° (NNE) 2,333 6.5 -15.1°
Sets 19:34:47 0° 20° (NNE) 3,266 7.3 -15.6°
